Location: Batang Balui
(2.7000°N, 113.7833°E)
Time: 19:36:45
(UTC+00:00)

Envisat - Pass Details

Date: 14 December 2022
Orbit: 763 x 765 km, 98.2° (Epoch: 29 January)

Event Time Altitude Azimuth Distance (km) Brightness Sun altitude
Exits shadow 19:31:39 21° 117° (ESE) 1,654 5.2 -39.3°
Drops below altitude 10° 19:34:36 10° 152° (SSE) 2,296 6.0 -38.6°
Sets 19:37:22 0° 167° (SSE) 3,223 6.7 -38.0°
